This is the latest recevied weather packets stored in our database for station/object KB9HUO. If no packets are shown the sender has not sent any weather packets the latest 10 day(s).
| Time | Temp. | Humidity | Pressure | Rain* | Wind** | Luminosity | Snow |
|---|---|---|---|---|---|---|---|
| 1777676545 | 13.33° C | 47% | 1016.5 hPa | 0 mm | - | 31 W/m² | - |
| 1777676242 | 13.33° C | 46% | 1016.5 hPa | 0 mm | - | 42 W/m² | - |
| 1777675940 | 13.33° C | 46% | 1016.3 hPa | 0 mm | - | 55 W/m² | - |
| 1777675635 | 13.89° C | 46% | 1016.3 hPa | 0 mm | - | 42 W/m² | - |
| 1777675333 | 13.89° C | 45% | 1016.2 hPa | 0 mm | - | 43 W/m² | - |
| 1777675029 | 14.44° C | 45% | 1016.3 hPa | 0 mm | - | 48 W/m² | - |
| 1777674726 | 14.44° C | 45% | 1016.3 hPa | 0 mm | - | 70 W/m² | - |
| 1777674423 | 14.44° C | 45% | 1016.6 hPa | 0 mm | - | 50 W/m² | - |
| 1777674120 | 15° C | 44% | 1016.4 hPa | 0 mm | - | 48 W/m² | - |
| 1777673816 | 15° C | 44% | 1016.2 hPa | 0 mm | - | 69 W/m² | - |
| 1777673513 | 15° C | 44% | 1016.4 hPa | 0 mm | - | 60 W/m² | - |
| 1777673211 | 15° C | 44% | 1016.4 hPa | 0 mm | - | 63 W/m² | - |
| 1777672908 | 15° C | 45% | 1016.4 hPa | 0 mm | - | 66 W/m² | - |
| 1777672605 | 15° C | 43% | 1016.3 hPa | 0 mm | - | 91 W/m² | - |
| 1777672300 | 15° C | 43% | 1016.2 hPa | 0 mm | - | 75 W/m² | - |
| 1777671995 | 15° C | 43% | 1016.2 hPa | 0 mm | - | 92 W/m² | - |
| 1777671690 | 15° C | 44% | 1016.1 hPa | 0 mm | - | 72 W/m² | - |
| 1777671388 | 15.56° C | 43% | 1016.1 hPa | 0 mm | - | 138 W/m² | - |
| 1777671084 | 15.56° C | 46% | 1016.3 hPa | 0 mm | - | 104 W/m² | - |
| 1777670781 | 15.56° C | 44% | 1016.1 hPa | 0 mm | - | 104 W/m² | - |
| 1777670477 | 15° C | 43% | 1016.2 hPa | 0 mm | - | 94 W/m² | - |
| 1777670174 | 15° C | 44% | 1016.1 hPa | 0 mm | - | 87 W/m² | - |
| 1777669872 | 15.56° C | 42% | 1016.1 hPa | 0 mm | - | 80 W/m² | - |
| 1777669568 | 15.56° C | 41% | 1016.2 hPa | 0 mm | - | 63 W/m² | - |
| 1777669265 | 15.56° C | 43% | 1016.4 hPa | 0 mm | - | 101 W/m² | - |
* Rain latest hour (hover to see other rain measurements)
** Current wind speed in m/s (hover to see current wind gust speed)